Weather History for WIPP - January, 2013

Change the Weather History Date:

Thursday, January 24, 2013

  Actual Average Record
Temperature  
Mean Temperature 79 °F -  
Max Temperature 87 °F - - ()
Min Temperature 71 °F - - ()
Cooling Degree Days 14    
Growing Degree Days 29 (Base 50)    
Moisture  
Dew Point 76 °F    
Average Humidity 87    
Maximum Humidity 99    
Minimum Humidity 66    
Precipitation  
Precipitation 0.12 in - - ()
Sea Level Pressure  
Sea Level Pressure 29.85 in    
Wind  
Wind Speed 2 mph ()    
Max Wind Speed 8 mph    
Max Gust Speed -    
Visibility 4.2 miles    
Events Fog , Rain    
T = Trace of Precipitation, MM = Missing Value Source: Averaged Metar Reports

Daily Weather History Graph

Daily Weather History Graph

Search for Another Location

Airport or City:

Trip Planner

Search our weather history database for the weather conditions in past years. The results will help you decide how hot, cold, wet, or windy it might be!

Date:

Astronomy

Jan. 24, 2013 Rise Set
Actual Time 6:05 AM WIB 6:20 PM WIB
Civil Twilight 5:43 AM WIB 6:42 PM WIB
Nautical Twilight 5:18 AM WIB 7:08 PM WIB
Astronomical Twilight 4:52 AM WIB 7:34 PM WIB
Moon 4:03 PM WIB (1/24) 3:29 AM WIB (1/24)
Length of Visible Light 12h 59m
Length of Day
12h 15m
Waxing Gibbous, 92% of the Moon is Illuminated
Jan 24
Waxing Gibbous
Jan 27
Full
Feb 3
Last Quarter
Feb 10
New
Feb 18
First Quarter

Hourly Weather History & Observations

Time (WIB) Temp. Heat Index Dew Point Humidity Pressure Visibility Wind Dir Wind Speed Gust Speed Precip Events Conditions
1:00 AM 76 °F - 76 °F 99% 29.88 in 2 mi Calm Calm - -   Mist
4:00 AM 77 °F - 76 °F 95% 29.87 in 1 mi Calm Calm - -   Mist
5:00 AM 77.0 °F - 75.2 °F 94% 29.86 in 1.2 mi NNW 3.5 mph - N/A   Scattered Clouds
5:30 AM 77.0 °F - 75.2 °F 94% 29.86 in 1.2 mi Calm Calm - N/A   Scattered Clouds
6:00 AM 77.0 °F - 75.2 °F 94% 29.86 in 0.9 mi West 3.5 mph - N/A   Scattered Clouds
6:30 AM 77.0 °F - 75.2 °F 94% 29.89 in 0.6 mi Calm Calm - N/A Fog Fog
7:00 AM 77 °F - 76 °F 95% 29.90 in 1 mi Calm Calm - - Fog Light Fog
7:00 AM 77.0 °F - 75.2 °F 94% 29.89 in 0.9 mi Calm Calm - N/A   Scattered Clouds
8:00 AM 78.8 °F - 77.0 °F 94% 29.92 in 1.9 mi NW 4.6 mph - N/A   Scattered Clouds
9:00 AM 78.8 °F - 77.0 °F 94% 29.95 in 6.2 mi WNW 5.8 mph - N/A   Mostly Cloudy
10:00 AM 80 °F - 77 °F 88% 29.94 in 5 mi WNW 5.8 mph - - Rain Light Rain
10:00 AM 78.8 °F - 77.0 °F 94% 29.92 in 5.0 mi WNW 5.8 mph - N/A Rain Light Rain
11:00 AM 84.2 °F 96.1 °F 78.8 °F 84% 29.89 in 6.2 mi WNW 5.8 mph - N/A   Mostly Cloudy
12:00 PM 86.0 °F 96.9 °F 77.0 °F 74% 29.86 in 6.2 mi NW 5.8 mph - N/A   Mostly Cloudy
1:00 PM 86 °F - 76 °F 66% 29.85 in 6 mi North 5.8 mph - -   Partly Cloudy
1:00 PM 86.0 °F 95.1 °F 75.2 °F 70% 29.83 in 6.2 mi North 5.8 mph - N/A   Mostly Cloudy
1:30 PM 84.2 °F 92.3 °F 75.2 °F 74% 29.83 in 6.2 mi North 8.1 mph - N/A   Mostly Cloudy
2:00 PM 86.0 °F 95.1 °F 75.2 °F 70% 29.80 in 6.2 mi NNW 6.9 mph - N/A   Mostly Cloudy
2:30 PM 86.0 °F 96.9 °F 77.0 °F 74% 29.80 in 6.2 mi North 6.9 mph - N/A   Mostly Cloudy
3:00 PM 86.0 °F 95.1 °F 75.2 °F 70% 29.80 in 6.2 mi North 6.9 mph - N/A   Scattered Clouds
3:30 PM 84.2 °F 92.3 °F 75.2 °F 74% 29.80 in 6.2 mi North 5.8 mph - N/A   Scattered Clouds
4:00 PM 85 °F - 76 °F 67% 29.80 in 6 mi North 4.6 mph - -   Partly Cloudy
4:00 PM 84.2 °F 92.3 °F 75.2 °F 74% 29.80 in 6.2 mi NW 5.8 mph - N/A   Scattered Clouds
4:30 PM 77.0 °F - 75.2 °F 94% 29.80 in 0.6 mi North 4.6 mph - N/A   Mostly Cloudy
5:00 PM 77.0 °F - 75.2 °F 94% 29.80 in 6.2 mi Calm Calm - N/A   Scattered Clouds
5:30 PM 77.0 °F - 75.2 °F 94% 29.80 in 6.2 mi Calm Calm - N/A   Scattered Clouds
6:00 PM 78.8 °F - 77.0 °F 94% 29.80 in 6.2 mi Calm Calm - N/A   Scattered Clouds
7:00 PM 78 °F - 76 °F 91% 29.84 in 5 mi Calm Calm - -   Haze
7:00 PM 77.0 °F - 75.2 °F 94% 29.83 in 5.0 mi Calm Calm - N/A   Partly Cloudy
7:30 PM 78.8 °F - 77.0 °F 94% 29.86 in 2.5 mi Calm Calm - N/A   Haze
8:00 PM 77.0 °F - 75.2 °F 94% 29.86 in 6.2 mi Calm Calm - N/A   Scattered Clouds
8:30 PM 77.0 °F - 75.2 °F 94% 29.86 in 5.0 mi Calm Calm - N/A   Scattered Clouds
9:00 PM 77.0 °F - 75.2 °F 94% 29.86 in 1.9 mi Calm Calm - N/A   Scattered Clouds
10:00 PM 78 °F - 76 °F 91% 29.84 in 5 mi Calm Calm - -   Haze
10:00 PM 77.0 °F - 75.2 °F 94% 29.89 in 1.9 mi Calm Calm - N/A   Scattered Clouds